TimeAKST,TemperatureF,Dew PointF,Humidity,Sea Level PressureIn,VisibilityMPH,Wind Direction,Wind SpeedMPH,Gust SpeedMPH,PrecipitationIn,Events,Conditions,WindDirDegrees,DateUTC
12:01 AM,-8.0,-9.9,91,30.28,10.0,SW,8.1,-,N/A,,Unknown,220,2012-11-18 09:01:00
1:01 AM,-8.0,-9.9,91,30.29,10.0,SW,6.9,-,N/A,,Unknown,220,2012-11-18 10:01:00
2:01 AM,-8.0,-9.9,91,30.29,6.0,SW,8.1,-,0.00,Snow,Light Snow,230,2012-11-18 11:01:00
3:01 AM,-6.0,-7.1,95,30.29,4.0,WSW,10.4,-,0.00,Snow,Light Snow,250,2012-11-18 12:01:00
4:01 AM,-4.0,-5.1,95,30.30,4.0,SW,8.1,-,0.00,Snow,Light Snow,230,2012-11-18 13:01:00
5:01 AM,-5.1,-6.0,96,30.30,8.0,WSW,9.2,-,0.00,Snow,Light Snow,240,2012-11-18 14:01:00
6:01 AM,-7.1,-8.0,96,30.31,10.0,WSW,12.7,-,0.00,,Unknown,250,2012-11-18 15:01:00
7:01 AM,-6.0,-8.0,91,30.33,10.0,SW,6.9,-,N/A,,Unknown,230,2012-11-18 16:01:00
8:01 AM,-8.0,-9.9,91,30.34,10.0,SW,10.4,-,N/A,,Unknown,230,2012-11-18 17:01:00
9:01 AM,-9.9,-11.9,91,30.36,9.0,SW,8.1,-,0.00,Snow,Light Snow,220,2012-11-18 18:01:00
10:01 AM,-9.9,-11.9,91,30.38,10.0,SW,8.1,-,0.00,,Unknown,230,2012-11-18 19:01:00
11:01 AM,-11.9,-14.1,90,30.40,10.0,SSW,8.1,-,N/A,,Unknown,210,2012-11-18 20:01:00
12:01 PM,-9.9,-11.0,95,30.41,10.0,SW,5.8,-,N/A,,Unknown,230,2012-11-18 21:01:00
1:01 PM,-9.9,-11.9,91,30.42,10.0,SW,4.6,-,N/A,,Unknown,230,2012-11-18 22:01:00
2:01 PM,-11.9,-15.0,86,30.43,10.0,SSW,6.9,-,N/A,,Unknown,210,2012-11-18 23:01:00
3:01 PM,-14.1,-16.1,91,30.44,10.0,SSW,6.9,-,N/A,,Unknown,210,2012-11-19 00:01:00
4:01 PM,-9.0,-11.0,91,30.45,10.0,Calm,Calm,-,N/A,,Unknown,0,2012-11-19 01:01:00
5:01 PM,-5.1,-7.1,91,30.46,10.0,Calm,Calm,-,N/A,,Unknown,0,2012-11-19 02:01:00
6:01 PM,-7.1,-9.0,91,30.48,10.0,Calm,Calm,-,N/A,,Unknown,0,2012-11-19 03:01:00
7:01 PM,-11.9,-14.1,90,30.48,10.0,South,6.9,-,N/A,,Unknown,190,2012-11-19 04:01:00
8:01 PM,-9.0,-9.9,96,30.49,10.0,SSW,5.8,-,N/A,,Unknown,210,2012-11-19 05:01:00
9:01 PM,-8.0,-9.9,91,30.50,10.0,SSW,5.8,-,N/A,,Unknown,210,2012-11-19 06:01:00
10:01 PM,-8.0,-9.9,91,30.50,10.0,Calm,Calm,-,N/A,,Unknown,0,2012-11-19 07:01:00
11:01 PM,-7.1,-9.0,91,30.51,10.0,Calm,Calm,-,N/A,,Unknown,0,2012-11-19 08:01:00